This is the latest recevied weather packets stored in our database for station/object KN6KS. If no packets are shown the sender has not sent any weather packets the latest 10 day(s).
| Time | Temp. | Humidity | Pressure | Rain* | Wind** | Luminosity | Snow |
|---|---|---|---|---|---|---|---|
| 1777912017 | 12.22° C | 66% | 1013.1 hPa | 0 mm | - | 459 W/m² | - |
| 1777911713 | 11.67° C | 67% | 1012.9 hPa | 0 mm | - | 154 W/m² | - |
| 1777911410 | 12.22° C | 67% | 1012.9 hPa | 0 mm | - | 177 W/m² | - |
| 1777911108 | 11.67° C | 68% | 1012.9 hPa | 0 mm | - | 204 W/m² | - |
| 1777910805 | 11.67° C | 68% | 1012.6 hPa | 0 mm | - | 632 W/m² | - |
| 1777910502 | 11.67° C | 69% | 1013 hPa | 0 mm | - | 585 W/m² | - |
| 1777910198 | 11.11° C | 70% | 1013.1 hPa | 0 mm | - | 178 W/m² | - |
| 1777909895 | 11.11° C | 70% | 1013 hPa | 0 mm | - | 177 W/m² | - |
| 1777909592 | 11.11° C | 70% | 1012.8 hPa | 0 mm | - | 181 W/m² | - |
| 1777909289 | 11.11° C | 71% | 1013 hPa | 0 mm | - | 189 W/m² | - |
| 1777908987 | 11.67° C | 70% | 1012.8 hPa | 0 mm | - | 197 W/m² | - |
| 1777908685 | 11.11° C | 70% | 1013.1 hPa | 0 mm | - | 365 W/m² | - |
| 1777908382 | 11.11° C | 71% | 1013 hPa | 0 mm | - | 271 W/m² | - |
| 1777908078 | 11.11° C | 70% | 1013 hPa | 0 mm | - | 413 W/m² | - |
| 1777907774 | 10.56° C | 72% | 1012.9 hPa | 0 mm | - | 249 W/m² | - |
| 1777907469 | 10.56° C | 72% | 1012.8 hPa | 0 mm | - | 250 W/m² | - |
| 1777907166 | 11.11° C | 72% | 1012.8 hPa | 0 mm | - | 324 W/m² | - |
| 1777906863 | 10.56° C | 72% | 1012.8 hPa | 0 mm | - | 300 W/m² | - |
| 1777906561 | 10.56° C | 72% | 1012.8 hPa | 0 mm | - | 195 W/m² | - |
| 1777906256 | 10.56° C | 73% | 1012.8 hPa | 0 mm | - | 211 W/m² | - |
| 1777905953 | 10.56° C | 73% | 1012.7 hPa | 0 mm | - | 185 W/m² | - |
| 1777905649 | 10.56° C | 73% | 1012.6 hPa | 0 mm | - | 140 W/m² | - |
| 1777905346 | 10.56° C | 73% | 1012.5 hPa | 0 mm | - | 123 W/m² | - |
| 1777905044 | 10.56° C | 74% | 1012.1 hPa | 0 mm | - | 116 W/m² | - |
| 1777904741 | 10° C | 75% | 1012.5 hPa | 0 mm | - | 147 W/m² | - |
* Rain latest hour (hover to see other rain measurements)
** Current wind speed in m/s (hover to see current wind gust speed)